Погода в Русятине

Россия / Тульская область     54°42′09″N   37°32′01″E
темп.,
°C
ветер,
м/с
пор.,
м/с
влажн.,
%
обл.,
%
осадки,
мм/ч
давл.,
гПа
погр.,
м
18 мая, ср
ср1800:00+6ссз5129598 0.4 1007434
03:00+6ссз51096100 0.5 1008362
06:00+6ссз5119598 0.6 1009445
09:00+8с598877 0.7 1012534
12:00+13с685445 0.1 10121928
15:00+15с574786 0.1 10122289
18:00+11ссз6968100 0.0 1014919
21:00+8ссз497854 0.1 1016289
19 мая, чт
чт1900:00+4сз3686100 0.0 1017113
03:00+4з378778 0.0 1017116
06:00+5з5138142 0.0 1016352
09:00+11зсз696280 0.0 1015954
12:00+13сз71054100 0.0 10141953
15:00+13сз7105982 0.1 10151897
18:00+12сз596442 0.1 10151442
21:00+7зсз3882100 0.1 1016169
20 мая, пт
пт2000:00+5с22929 0.1 101724
03:00+3ссв22885 0.1 101835
06:00+3св388489 0.0 1020240
09:00+7ссв45555 0.0 1020982
12:00+10с34425 0.0 10201705
15:00+12с223850 0.0 10181915
18:00+11всв1244100 0.0 10161233
21:00+7вюв3465100 0.0 101670
21 мая, сб
сб2100:00+6юв3462100 0.0 101469
03:00+4в2267100 0.0 101425
06:00+4всв357282 0.0 1013150
09:00+9всв55585 0.0 1012828
12:00+12св444664 0.0 10121946
15:00+13св444384 0.0 10112144
18:00+12св235032 0.0 10102010
21:00+6в116469 0.0 101110
22 мая, вс
вс2200:00+4в227139 0.0 101124
03:00+2св227880 0.0 101211
06:00+3св2472100 0.0 1011127
09:00+8св45531 0.0 10101121
12:00+11св344328 0.0 10101975
15:00+13св344182 0.0 10092211
18:00+12св345183 0.0 10091505
21:00+6с226518 0.0 101014